Regional Weather Roundup
Issued by NWS Sioux Falls, SD

Home | Current Version | Previous Version | Graphics & Text | Print | Product List | Glossary Off
Versions: 1 2 3 4 5 6 7 8 9 10 11 12 13 14 15 16 17 18 19 20 21 22 23 24 25 26 27 28 29 30 31 32 33 34 35 36 37 38 39 40 41 42 43 44 45 46 47 48 49 50

000
ASUS43 KFSD 171002
RWRFSD

WEATHER ROUNDUP FOR SE SOUTH DAKOTA/SW MINNESOTA/NW IOWA
NATIONAL WEATHER SERVICE SIOUX FALLS SD
500 AM CDT WED SEP 17 2014

NOTE: "FAIR" INDICATES FEW OR NO CLOUDS BELOW 12,000 FEET WITH NO
SIGNIFICANT WEATHER AND OR OBSTRUCTIONS TO VISIBILITY.


SDZ038>040-050-052>070-171100-
SOUTHEAST SOUTH DAKOTA

CITY           SKY/WX    TMP DP  RH WIND       PRES   REMARKS
CHAMBERLAIN    FOG       46  46 100 CALM      29.90R VSB 1/2
HURON          PTCLDY    50  49  96 VRB3      29.90S
MADISON        FAIR      48  48 100 S5        29.92F
MITCHELL       CLEAR     49  48  97 SE3       29.90F
SIOUX FALLS    PTCLDY    55  49  80 S3        29.92F
WINNER         FAIR      54  52  93 S3        29.90S
YANKTON        CLEAR     50  48  93 SE5       29.92S
$$

MNZ071-072-080-081-089-090-097-098-171100-
SOUTHWEST MINNESOTA

CITY           SKY/WX    TMP DP  RH WIND       PRES   REMARKS
FAIRMONT       MOCLDY    52  45  76 S5        29.96F
JACKSON        PTCLDY    52  46  82 S6        29.95F
LUVERNE        CLEAR     50  46  87 CALM      29.94S
MARSHALL       CLEAR     54  46  76 S6        29.90F
MONTEVIDEO     CLEAR     54  48  82 CALM      29.92S
PIPESTONE      CLEAR     52  48  87 S3        29.92F
REDWOOD FALLS  CLOUDY    55  51  86 S6        29.92F
TRACY          CLEAR     55  50  81 S10       29.92F
WINDOM         FAIR      54  48  82 CALM      29.95S
WORTHINGTON    CLEAR     52  46  82 S5        29.95F
$$

IAZ001>003-012>014-020>022-031-032-NEZ013-014-SDZ071-171100-
NORTHWEST IOWA

CITY           SKY/WX    TMP DP  RH WIND       PRES   REMARKS
CHEROKEE       MOCLDY    51  51  98 S3        29.95F
DENISON        CLOUDY    57  54  88 CALM      29.94F
ESTHERVILLE    CLOUDY    51  48  89 S7        29.96F
LE MARS        CLEAR     52  50  93 CALM      29.94F
ORANGE CITY    CLEAR     54  48  82 S3        29.95S
SHELDON        PTCLDY    48  48 100 SE6       29.94S
SIOUX CITY     CLOUDY    56  53  90 E5        29.94F
SPENCER        CLOUDY    53  48  83 CALM      29.96F
STORM LAKE     CLOUDY    52  52 100 S7        29.95F
$$

ABBREVIATIONS USED IN REMARKS
   TC - TEMPERATURE IN CELSIUS
  WCI - WIND CHILL INDEX
   HX - HEAT INDEX
  VSB - VISIBILITY



USA.gov is the U.S. government's official web portal to all federal, state and local government web resources and services.